This demonstration page uses our WeatherBlox Daily Observations layout. Learn more.

Left ArrowRight Arrow

Hourly Observations for September 7, 2017

Temp ( °F °C ) Dew Point ( °F °C ) Humidity (%) Winds ( mph kmh ) Pressure ( in mb ) Visibility ( mi km ) Precip ( " mm )
12:54 am 00:54 Clear 48 8.9 45 7.2 89 89 N 3 6 30.15 1021 10 16.0934 0 0
1:54 am 01:54 Clear 48 8.9 45 7.2 89 89 Calm 30.15 1021 10 16.0934 0 0
2:54 am 02:54 Clear 46 7.8 43 6.1 89 89 NNE 3 6 30.15 1021 10 16.0934 0 0
3:54 am 03:54 Clear 45 7.2 43 6.1 93 93 Calm 30.15 1021 10 16.0934 0 0
4:54 am 04:54 Clear 45 7.2 43 6.1 93 93 Calm 30.14 1021 10 16.0934 0 0
5:54 am 05:54 Clear 46 7.8 43 6.1 89 89 Calm 30.13 1020 10 16.0934 0 0
6:54 am 06:54 Clear 46 7.8 43 6.1 89 89 Calm 30.13 1020 10 16.0934 0 0
7:54 am 07:54 Sunny 49 9.4 45 7.2 86 86 Calm 30.14 1021 9 14.48406 0 0
8:54 am 08:54 Sunny 54 12.2 47 8.3 77 77 Calm 30.13 1020 8 12.87472 0 0
9:54 am 09:54 Sunny 62 16.7 50 10 65 65 S 5 7 30.12 1020 9 14.48406 0 0
10:54 am 10:54 Sunny 70 21.1 49 9.4 47 47 S 7 11 30.12 1020 10 16.0934 0 0
11:54 am 11:54 Sunny 75 23.9 46 7.8 36 36 VRB 6 9 30.1 1019 10 16.0934 0 0
12:54 pm 12:54 Sunny 77 25 46 7.8 33 33 S 9 15 30.08 1019 10 16.0934 0 0
1:54 pm 13:54 Sunny 79 26.1 46 7.8 31 31 S 7 11 30.06 1018 10 16.0934 0 0
2:54 pm 14:54 Sunny 81 27.2 46 7.8 29 29 SW 5 7 30.04 1017 10 16.0934 0 0
3:54 pm 15:54 Sunny 82 27.8 45 7.2 27 27 S 9 15 30.02 1017 10 16.0934 0 0
4:54 pm 16:54 Sunny 82 27.8 45 7.2 27 27 SW 7 11 30.01 1016 10 16.0934 0 0
5:54 pm 17:54 Sunny 82 27.8 44 6.7 26 26 SSW 9 15 29.99 1016 10 16.0934 0 0
6:54 pm 18:54 Sunny 78 25.6 50 10 37 37 S 6 9 29.99 1016 10 16.0934 0 0
7:54 pm 19:54 Clear 74 23.3 50 10 43 43 SSE 5 7 29.99 1016 10 16.0934 0 0
8:54 pm 20:54 Clear 71 21.7 51 10.6 49 49 Calm 30.01 1016 10 16.0934 0 0
9:54 pm 21:54 Clear 68 20 52 11.1 57 57 S 3 6 30.01 1016 10 16.0934 0 0
10:54 pm 22:54 Clear 67 19.4 52 11.1 59 59 SSW 3 6 30.01 1016 10 16.0934 0 0
11:54 pm 23:54 Clear 63 17.2 51 10.6 65 65 SSE 3 6 30.02 1017 10 16.0934 0 0

Powered by AerisWeather